Hourly Data Report for July 03, 2004

TORONTO CITY
ONTARIO

43°40'00.000" N
79°24'00.000" W
112.50 m
6158355
71508
XTO

Download Data

Hourly Data (July 2004)
Hourly Data Report for July 3, 2004
TIME
LST
Temp Definition
°C
Dew Point Definition
°C
Rel Hum Definition
%
Precip. Amount Definition
mm

Wind Dir Definition
10's deg

Wind Spd Definition
km/h
Visibility Definition
km
Stn Press Definition
kPa
Hmdx Definition


Wind Chill Definition


Weather Definition


00:00 18.9 10.4 58   LegendMM LegendMM LegendMM 100.49     LegendNANA
01:00 18.6 9.8 57   LegendMM LegendMM LegendMM 100.51     LegendNANA
02:00 17.5 9.9 61   LegendMM LegendMM LegendMM 100.51     LegendNANA
03:00 17.4 9.6 60   LegendMM LegendMM LegendMM 100.49     LegendNANA
04:00 17.4 9.9 61   LegendMM LegendMM LegendMM 100.46     LegendNANA
05:00 17.1 10.2 64   LegendMM LegendMM LegendMM 100.44     LegendNANA
06:00 17.2 10.7 66   LegendMM LegendMM LegendMM 100.42     LegendNANA
07:00 18.8 12.1 65   LegendMM LegendMM LegendMM 100.42     LegendNANA
08:00 20.7 12.4 59   LegendMM LegendMM LegendMM 100.44     LegendNANA
09:00 21.5 11.8 54   LegendMM LegendMM LegendMM 100.43     LegendNANA
10:00 22.6 13.3 56   LegendMM LegendMM LegendMM 100.41 26   LegendNANA
11:00 22.9 13.0 54   LegendMM LegendMM LegendMM 100.39 26   LegendNANA
12:00 24.0 13.7 53   LegendMM LegendMM LegendMM 100.39 27   LegendNANA
13:00 24.9 12.2 45   LegendMM LegendMM LegendMM 100.35 27   LegendNANA
14:00 25.4 11.3 41   LegendMM LegendMM LegendMM 100.30 27   LegendNANA
15:00 25.6 11.4 41   LegendMM LegendMM LegendMM 100.23 28   LegendNANA
16:00 24.4 10.6 42   LegendMM LegendMM LegendMM 100.17 26   LegendNANA
17:00 23.6 10.2 43   LegendMM LegendMM LegendMM 100.09 25   LegendNANA
18:00 22.9 9.1 41   LegendMM LegendMM LegendMM 100.06     LegendNANA
19:00 22.1 9.6 45   LegendMM LegendMM LegendMM 100.06     LegendNANA
20:00 21.5 9.4 46   LegendMM LegendMM LegendMM 100.03     LegendNANA
21:00 21.2 9.1 46   LegendMM LegendMM LegendMM 100.04     LegendNANA
22:00 20.9 10.2 50   LegendMM LegendMM LegendMM 99.98     LegendNANA
23:00 20.2 12.0 59   LegendMM LegendMM LegendMM 99.95     LegendNANA

Notes on Data Quality.

Legend

  • E = Estimated
  • M = Missing
  • NA = Not Available*
  • [empty] = Indicates an unobserved value
Date modified: